Terminal Aerodrome Forecast
Issued by NWS Charleston, WV

Current Version | Previous Version | Graphics & Text | Print | Product List | Glossary On
Versions: 1 2 3 4 5 6 7 8 9 10 11 12 13 14 15 16 17 18 19 20 21
000
FTUS41 KRLX 221700
TAFHTS
TAF
KHTS 221720Z 2218/2318 29011G17KT P6SM BKN040
     FM222100 30013G20KT P6SM SCT050
     FM230400 31009KT P6SM FEW045
     FM231400 32007KT P6SM FEW150
     FM231700 32007KT P6SM SKC=

USA.gov is the U.S. government's official web portal to all federal, state and local government web resources and services.